Hayward, WI

8:13 AM CST on December 11, 2017 (GMT -0600)
Sawyer County

Weather History for KHYR - September, 2012

Change the Weather History Date:

Friday, September 14, 2012

  Actual Average Record
Temperature  
Mean Temperature 51 °F -  
Max Temperature 69 °F 78 °F 84 °F (2017)
Min Temperature 36 °F 51 °F 28 °F (2007)
Degree Days  
Heating Degree Days 14    
Growing Degree Days 1 (Base 50)    
Moisture  
Dew Point 40 °F    
Average Humidity 65    
Maximum Humidity 93    
Minimum Humidity 34    
Precipitation  
Precipitation 0.00 in - - ()
Sea Level Pressure  
Sea Level Pressure 30.34 in    
Wind  
Wind Speed 1 mph (NE)    
Max Wind Speed 6 mph    
Max Gust Speed -    
Visibility 10 miles    
Events      
Averages and records for this station are not official NWS values.
T = Trace of Precipitation, MM = Missing Value Source: NWS Daily Summary

Daily Weather History Graph

Daily Weather History Graph

Search for Another Location

Airport or City:

Trip Planner

Search our weather history database for the weather conditions in past years. The results will help you decide how hot, cold, wet, or windy it might be!

Date:

Astronomy

Sep. 14, 2012 Rise Set
Actual Time 6:43 AM CDT 7:18 PM CDT
Civil Twilight 6:13 AM CDT 7:48 PM CDT
Nautical Twilight 5:37 AM CDT 8:23 PM CDT
Astronomical Twilight 5:00 AM CDT 9:00 PM CDT
Moon 5:05 AM CDT (9/14) 6:15 PM CDT (9/14)
Length of Visible Light 13h 34m
Length of Day
12h 34m
Waning Crescent, 2% of the Moon is Illuminated
Sep 14
Waning Crescent
Sep 15
New
Sep 22
First Quarter
Sep 29
Full
Oct 8
Last Quarter

Hourly Weather History & Observations

Time (CDT) Temp. Dew Point Humidity Pressure Visibility Wind Dir Wind Speed Gust Speed Precip Events Conditions
12:53 AM 48.0 °F 43.0 °F 83% 30.35 in 10.0 mi Calm Calm - N/A   Overcast
1:53 AM 46.9 °F 44.1 °F 90% 30.35 in 10.0 mi Calm Calm - 0.00 in   Overcast
2:53 AM 50.0 °F 42.1 °F 74% 30.36 in 10.0 mi Calm Calm - 0.00 in   Overcast
3:53 AM 46.9 °F 42.1 °F 83% 30.33 in 10.0 mi Calm Calm - 0.00 in   Overcast
4:53 AM 39.9 °F 37.9 °F 93% 30.33 in 10.0 mi Calm Calm - N/A   Clear
5:53 AM 37.9 °F 36.0 °F 93% 30.34 in 10.0 mi Calm Calm - N/A   Clear
6:53 AM 36.0 °F 33.1 °F 89% 30.35 in 10.0 mi Calm Calm - N/A   Clear
8:53 AM 51.1 °F 43.0 °F 74% 30.38 in 10.0 mi Calm Calm - N/A   Clear
9:53 AM 59.0 °F 43.0 °F 55% 30.37 in 10.0 mi NE 3.5 mph - N/A   Clear
10:53 AM 62.1 °F 39.9 °F 44% 30.37 in 10.0 mi Variable 3.5 mph - N/A   Clear
11:53 AM 63.0 °F 39.9 °F 43% 30.37 in 10.0 mi Variable 5.8 mph - N/A   Clear
12:53 PM 64.0 °F 39.9 °F 41% 30.36 in 10.0 mi Variable 3.5 mph - N/A   Clear
1:53 PM 66.0 °F 39.0 °F 37% 30.35 in 10.0 mi Variable 5.8 mph - N/A   Clear
2:53 PM 66.0 °F 37.9 °F 36% 30.33 in 10.0 mi Calm Calm - N/A   Clear
3:53 PM 66.9 °F 37.9 °F 34% 30.32 in 10.0 mi Variable 3.5 mph - N/A   Clear
4:53 PM 66.9 °F 37.9 °F 34% 30.32 in 10.0 mi Variable 3.5 mph - N/A   Clear
5:53 PM 66.9 °F 37.9 °F 34% 30.31 in 10.0 mi Calm Calm - N/A   Partly Cloudy
6:53 PM 61.0 °F 39.0 °F 44% 30.31 in 10.0 mi Calm Calm - N/A   Clear
7:53 PM 50.0 °F 43.0 °F 77% 30.33 in 10.0 mi Calm Calm - N/A   Clear
8:53 PM 46.0 °F 39.9 °F 79% 30.33 in 10.0 mi Calm Calm - N/A   Clear
9:53 PM 44.1 °F 39.9 °F 85% 30.34 in 10.0 mi Calm Calm - N/A   Clear
10:53 PM 43.0 °F 39.9 °F 89% 30.33 in 10.0 mi Calm Calm - N/A   Clear
11:53 PM 39.9 °F 37.0 °F 89% 30.34 in 10.0 mi Calm Calm - N/A   Clear